| time (UTC) | temp F | wind direction | speed knots | gust knots | rain 1hr in | rain 24hr in | rain mn in | humidity % | barometer mb |
| 20260503232106 | 58 | 338 | 0.9 | 1.7 | 0.00 | 0.00 | 0.00 | 71 | 1037.3 |
| 20260503231103 | 58 | 338 | 1.7 | 2.6 | 0.00 | 0.00 | 0.00 | 71 | 1037.3 |
| 20260503230100 | 58 | 338 | 0.9 | 2.6 | 0.00 | 0.00 | 0.00 | 72 | 1037.2 |
| 20260503225055 | 58 | 0.0 | 0.9 | 0.00 | 0.00 | 0.00 | 71 | 1037.2 | |
| 20260503224053 | 58 | 338 | 1.7 | 3.5 | 0.00 | 0.00 | 0.00 | 70 | 1037.2 |
| 20260503223049 | 59 | 356 | 0.9 | 1.7 | 0.00 | 0.00 | 0.00 | 69 | 1037.1 |
| 20260503222045 | 59 | 45 | 0.0 | 1.7 | 0.00 | 0.00 | 0.00 | 70 | 1037.2 |
| 20260503221041 | 58 | 0.0 | 0.9 | 0.00 | 0.00 | 0.00 | 70 | 1037.2 | |
| 20260503220038 | 57 | 45 | 0.9 | 1.7 | 0.00 | 0.00 | 0.00 | 71 | 1037.3 |
| 20260503215035 | 56 | 45 | 0.9 | 1.7 | 0.00 | 0.00 | 0.00 | 71 | 1037.4 |
| 20260503214032 | 56 | 23 | 0.9 | 2.6 | 0.00 | 0.00 | 0.00 | 71 | 1037.4 |
| 20260503213028 | 56 | 26 | 1.7 | 1.7 | 0.00 | 0.00 | 0.00 | 72 | 1037.3 |
| 20260503212024 | 55 | 25 | 0.9 | 3.5 | 0.00 | 0.00 | 0.00 | 73 | 1037.3 |
| 20260503211021 | 55 | 23 | 0.9 | 1.7 | 0.00 | 0.00 | 0.00 | 76 | 1037.3 |
| 20260503210017 | 54 | 23 | 0.9 | 1.7 | 0.00 | 0.00 | 0.00 | 81 | 1037.3 |
| 20260503205116 | 54 | 23 | 1.7 | 3.5 | 0.00 | 0.00 | 0.00 | 87 | 1037.3 |
| 20260503204111 | 53 | 23 | 1.7 | 3.5 | 0.00 | 0.00 | 0.00 | 92 | 1037.4 |
| 20260503203109 | 53 | 23 | 1.7 | 2.6 | 0.00 | 0.00 | 0.00 | 95 | 1037.4 |
| 20260503202105 | 52 | 0.0 | 0.0 | 0.00 | 0.00 | 0.00 | 97 | 1037.2 | |
| 20260503201100 | 52 | 23 | 0.9 | 1.7 | 0.00 | 0.00 | 0.00 | 97 | 1037.1 |
| 20260503200056 | 52 | 0.0 | 0.0 | 0.00 | 0.00 | 0.00 | 98 | 1036.9 | |
| 20260503195053 | 51 | 0.0 | 0.0 | 0.00 | 0.00 | 0.00 | 98 | 1036.9 | |
| 20260503194051 | 51 | 0.0 | 0.0 | 0.00 | 0.00 | 0.00 | 98 | 1036.8 | |
| 20260503193046 | 50 | 0.0 | 0.0 | 0.00 | 0.00 | 0.00 | 98 | 1036.9 | |
| 20260503192124 | 50 | 0.0 | 0.0 | 0.00 | 0.00 | 0.00 | 98 | 1036.7 | |
| 20260503191040 | 50 | 0.0 | 0.0 | 0.00 | 0.00 | 0.00 | 98 | 1036.6 | |
| 20260503190038 | 49 | 0.0 | 0.0 | 0.00 | 0.00 | 0.00 | 98 | 1036.4 | |
| 20260503185034 | 49 | 0.0 | 0.0 | 0.00 | 0.00 | 0.00 | 98 | 1036.3 | |
| 20260503184029 | 49 | 23 | 0.0 | 1.7 | 0.00 | 0.00 | 0.00 | 98 | 1036.2 |
| 20260503183026 | 49 | 0.0 | 0.0 | 0.00 | 0.00 | 0.00 | 99 | 1036.0 | |
| 20260503182106 | 49 | 0.0 | 0.0 | 0.00 | 0.00 | 0.00 | 99 | 1036.0 | |
| 20260503181018 | 49 | 0.0 | 0.0 | 0.00 | 0.00 | 0.00 | 99 | 1035.9 | |
| 20260503180115 | 48 | 0.0 | 1.7 | 0.00 | 0.00 | 0.00 | 99 | 1035.9 | |
| 20260503175112 | 48 | 23 | 0.0 | 1.7 | 0.00 | 0.00 | 0.00 | 98 | 1036.0 |
| 20260503174108 | 48 | 23 | 0.0 | 1.7 | 0.00 | 0.00 | 0.00 | 98 | 1036.0 |
| 20260503173127 | 47 | 0.0 | 0.0 | 0.00 | 0.00 | 0.00 | 98 | 1036.1 | |
| 20260503172121 | 47 | 0.0 | 0.0 | 0.00 | 0.00 | 0.00 | 98 | 1036.1 | |
| 20260503171058 | 48 | 0.0 | 0.0 | 0.00 | 0.00 | 0.00 | 98 | 1036.1 | |
| 20260503170116 | 47 | 0.0 | 0.0 | 0.00 | 0.00 | 0.00 | 98 | 1036.2 | |
| 20260503150114 | 47 | 23 | 0.0 | 1.7 | 0.00 | 0.00 | 0.00 | 95 | 1037.0 |
| 20260503131034 | 50 | 23 | 0.9 | 1.7 | 0.00 | 0.00 | 0.00 | 91 | 1037.5 |
| 20260503120112 | 51 | 23 | 1.7 | 3.5 | 0.00 | 0.00 | 0.00 | 91 | 1037.4 |
| 20260503090108 | 52 | 23 | 3.5 | 4.3 | 0.00 | 0.00 | 0.00 | 90 | 1036.5 |
| 20260503081052 | 51 | 23 | 2.6 | 3.5 | 0.00 | 0.00 | 0.00 | 90 | 1036.4 |
| 20260503072034 | 52 | 23 | 2.6 | 4.3 | 0.00 | 0.00 | 0.00 | 90 | 1036.4 |
| 20260503071030 | 52 | 23 | 3.5 | 4.3 | 0.00 | 0.00 | 0.00 | 89 | 1036.4 |
| 20260503060107 | 53 | 23 | 2.6 | 3.5 | 0.00 | 0.00 | 0.00 | 84 | 1036.1 |
| 20260503055104 | 54 | 23 | 2.6 | 5.2 | 0.00 | 0.00 | 0.00 | 84 | 1036.1 |
| 20260503054059 | 54 | 23 | 2.6 | 4.3 | 0.00 | 0.00 | 0.00 | 84 | 1036.1 |
| 20260503052054 | 55 | 23 | 2.6 | 4.3 | 0.00 | 0.00 | 0.00 | 77 | 1036.0 |
| 20260503051152 | 56 | 135 | 0.9 | 1.7 | 0.00 | 0.00 | 0.00 | 73 | 1036.0 |
| 20260503050048 | 57 | 0.0 | 0.0 | 0.00 | 0.00 | 0.00 | 71 | 1036.0 | |
| 20260503045102 | 58 | 0.0 | 0.0 | 0.00 | 0.00 | 0.00 | 70 | 1036.0 | |
| 20260503044038 | 59 | 0.0 | 0.9 | 0.00 | 0.00 | 0.00 | 68 | 1036.0 | |
| 20260503043035 | 61 | 0.0 | 0.0 | 0.00 | 0.00 | 0.00 | 64 | 1036.0 | |
| 20260503042031 | 64 | 158 | 0.9 | 1.7 | 0.00 | 0.00 | 0.00 | 59 | 1036.0 |
| 20260503041028 | 68 | 158 | 0.9 | 1.7 | 0.00 | 0.00 | 0.00 | 52 | 1036.0 |
| 20260503040026 | 71 | 158 | 0.0 | 0.9 | 0.00 | 0.00 | 0.00 | 53 | 1036.0 |
| 20260503035022 | 70 | 158 | 0.9 | 2.6 | 0.00 | 0.00 | 0.00 | 52 | 1036.2 |
| 20260503034018 | 72 | 90 | 0.0 | 1.7 | 0.00 | 0.00 | 0.00 | 52 | 1036.1 |
| 20260503033115 | 70 | 96 | 0.9 | 1.7 | 0.00 | 0.00 | 0.00 | 52 | 1036.3 |
| 20260503032111 | 69 | 248 | 0.9 | 1.7 | 0.00 | 0.00 | 0.00 | 53 | 1036.3 |
| 20260503031129 | 70 | 255 | 0.9 | 1.7 | 0.00 | 0.00 | 0.00 | 53 | 1036.3 |
| 20260503030106 | 67 | 45 | 0.9 | 1.7 | 0.00 | 0.00 | 0.00 | 57 | 1036.3 |
| 20260503025100 | 65 | 248 | 0.9 | 1.7 | 0.00 | 0.00 | 0.00 | 61 | 1036.4 |
| 20260503024059 | 64 | 248 | 0.0 | 1.7 | 0.00 | 0.00 | 0.00 | 61 | 1036.5 |
| 20260503023055 | 64 | 0.0 | 0.9 | 0.00 | 0.00 | 0.00 | 64 | 1036.5 | |
| 20260503022050 | 64 | 248 | 1.7 | 5.2 | 0.00 | 0.00 | 0.00 | 60 | 1036.6 |
| 20260503021109 | 67 | 258 | 3.5 | 5.2 | 0.00 | 0.00 | 0.00 | 57 | 1036.6 |
| 20260503020104 | 67 | 45 | 1.7 | 3.5 | 0.00 | 0.00 | 0.00 | 60 | 1036.7 |
| 20260503015041 | 65 | 55 | 1.7 | 3.5 | 0.00 | 0.00 | 0.00 | 62 | 1036.8 |
| 20260503014036 | 64 | 45 | 2.6 | 5.2 | 0.00 | 0.00 | 0.00 | 61 | 1036.8 |
| 20260503013034 | 64 | 52 | 0.9 | 1.7 | 0.00 | 0.00 | 0.00 | 63 | 1036.9 |
| 20260503012031 | 65 | 55 | 1.7 | 3.5 | 0.00 | 0.00 | 0.00 | 59 | 1037.0 |
| 20260503011025 | 67 | 60 | 2.6 | 3.5 | 0.00 | 0.00 | 0.00 | 55 | 1037.1 |
| 20260503010106 | 68 | 77 | 0.9 | 1.7 | 0.00 | 0.00 | 0.00 | 57 | 1037.2 |
| 20260503005020 | 66 | 90 | 0.9 | 2.6 | 0.00 | 0.00 | 0.00 | 58 | 1037.4 |
| 20260503004117 | 66 | 99 | 1.7 | 3.5 | 0.00 | 0.00 | 0.00 | 60 | 1037.4 |
| 20260503003132 | 66 | 152 | 1.7 | 3.5 | 0.00 | 0.00 | 0.00 | 57 | 1037.6 |
| 20260503002108 | 67 | 145 | 1.7 | 2.6 | 0.00 | 0.00 | 0.00 | 56 | 1037.7 |
| 20260503001105 | 67 | 127 | 1.7 | 3.5 | 0.00 | 0.00 | 0.00 | 57 | 1037.8 |
| 20260502235058 | 64 | 155 | 1.7 | 3.5 | 0.00 | 0.00 | 0.00 | 58 | 1038.0 |
| 20260502234117 | 65 | 182 | 1.7 | 3.5 | 0.00 | 0.00 | 0.00 | 60 | 1038.0 |
| 20260502233053 | 65 | 62 | 2.6 | 3.5 | 0.00 | 0.00 | 0.00 | 60 | 1038.1 |